{"data":{"norad_id":58959,"epoch":"2026-05-25T00:53:09.087072Z","epoch_age_seconds":72019,"freshness":"FRESH","line1":"1 58959U 24028E   26145.03691073 -.00000044  00000+0  37488-4 0  9991","line2":"2 58959  39.9886 149.3263 0010850 126.2857 233.8893 13.70554774113895","mean_motion":13.70554774,"eccentricity":0.001085,"inclination_deg":39.9886,"raan_deg":149.3263,"arg_perigee_deg":126.2857,"mean_anomaly_deg":233.8893,"bstar":3.7488e-5,"rev_number":11389,"period_min":105.06694276781,"perigee_km":989.57732411063,"apogee_km":1005.5826299508,"semimajor_km":7375.7169770307,"source":"CELESTRAK","updated_at":"2026-05-25T13:38:01.088424Z"}}